KUIPER-00251

导读

KUIPER-00251是美国亚马逊“柯伊伯项目”星座中的一颗低轨宽带通信卫星,于2025年12月15日发射入轨。该项目计划部署3236颗卫星,旨在为全球,尤其偏远无网络覆盖地区,提供高速低延迟的卫星互联网接入服务。作为项目大规模部署阶段的卫星,KUIPER-00251将与其他卫星共同构建覆盖全球的低轨通信网络,可支持家庭上网、应急通信、企业云服务等多元应用场景。

基本信息
目录编号:
67156
目录名称:
KUIPER-00251
国际标识:
2025-301Z
轨道中心:
EARTH
卫星名称:
KUIPER-00251
卫星全名:
KUIPER-00251
卫星状态:
在轨 (已飞行273 天)
发射日期:
2025-12-15 UTC
国别 :
美国 (US)
星等 :
--
该卫星已列入 空间交会检测服务 Space Conjunction Data Service (SCDS) ,当前飞行风险评估等级: 无高风险
轨道信息
数据来源 国际轨道数据
星历时间: 2026-09-13T16:47:27+0800
19小时前
查看轨道信息
半长轴: 7007.691km
偏心率: 0.0000397
轨道倾角: 51.902°
近地点辐角 81.580°
升交点赤经 308.261°
平近点角 278.521°
近地点: 629.275km
远地点: 629.833km
周期: 97.302分钟
每日圈数: 14.799273
详细信息
使用方式:
暂无
2D轨道图
3D轨道图
轨道高度分析图
轨道倾角分析图
轨道综合分析图
查看轨道综合分析图
交会数据列表
事件ID 空间交会对象 最接近时刻(TCA) 交会距离 交会风险概率(CRP) 交会风险指数(CRI) 操作
CDM_260914-074503-155806-715622
2026-09-14T
07:45:30+0000
1.664 km
极远距离
4.626231E-6 低风险 0.48
CDM_260915-093605-291206-715623
2026-09-15T
09:36:15+0000
1.903 km
极远距离
3.190645E-6 低风险 0.45
CDM_260915-180303-332106-715622
HJ-1B (33321)
2026-09-15T
18:03:25+0000
2.761 km
极远距离
1.079004E-6 低风险 0.36
与全量物体交会距离演化趋势 订阅飞行安全评估服务
与全量物体交会风险概率演化趋势 订阅飞行安全评估服务